Altus, OK

5:32 PM CDT on March 23, 2017 (GMT -0500)
Altus Municipal

Weather History for KAXS - March, 2014

Change the Weather History Date:

Sunday, March 9, 2014

  Actual Average (KLTS) Record (KLTS)
Temperature  
Mean Temperature 44 °F -  
Max Temperature 64 °F 59 °F 83 °F (2009)
Min Temperature 25 °F 35 °F 23 °F (1998)
Degree Days  
Heating Degree Days 20    
Moisture  
Dew Point 19 °F    
Average Humidity 43    
Maximum Humidity 78    
Minimum Humidity 15    
Precipitation  
Precipitation 0.00 in - - ()
Sea Level Pressure  
Sea Level Pressure 30.28 in    
Wind  
Wind Speed 6 mph (WSW)    
Max Wind Speed 13 mph    
Max Gust Speed -    
Visibility 10 miles    
Events      
Averages and records for this station are not official NWS values.
T = Trace of Precipitation, MM = Missing Value Source: NWS Daily Summary

Daily Weather History Graph

Daily Weather History Graph

Search for Another Location

Airport or City:

Trip Planner

Search our weather history database for the weather conditions in past years. The results will help you decide how hot, cold, wet, or windy it might be!

Date:

Astronomy

Mar. 09, 2014 Rise Set
Actual Time 7:56 AM CDT 7:40 PM CDT
Civil Twilight 7:30 AM CDT 8:05 PM CDT
Nautical Twilight 7:01 AM CDT 8:34 PM CDT
Astronomical Twilight 6:32 AM CDT 9:03 PM CDT
Moon 1:44 PM CDT (3/9) 3:12 AM CDT (3/9)
Length of Visible Light 12h 34m
Length of Day
11h 44m
First Quarter, 61% of the Moon is Illuminated
Mar 9
First Quarter
Mar 16
Full
Mar 23
Last Quarter
Mar 30
New
Apr 7
First Quarter

Hourly Weather History & Observations

Time (CDT) Temp. Windchill Dew Point Humidity Pressure Visibility Wind Dir Wind Speed Gust Speed Precip Events Conditions
12:15 AM 36.5 °F 31.0 °F 21.6 °F 55% 30.38 in 10.0 mi North 6.9 mph - N/A   Mostly Cloudy
12:35 AM 34.7 °F 28.8 °F 21.2 °F 58% 30.37 in 10.0 mi North 6.9 mph - N/A   Scattered Clouds
12:55 AM 32.7 °F 29.6 °F 21.2 °F 63% 30.37 in 10.0 mi NW 3.5 mph - N/A   Clear
1:15 AM 33.1 °F - 21.7 °F 63% 30.36 in 10.0 mi Calm Calm - N/A   Clear
1:35 AM 32.4 °F 26.9 °F 21.2 °F 63% 30.36 in 10.0 mi NNW 5.8 mph - N/A   Clear
1:55 AM 31.8 °F 24.6 °F 21.7 °F 66% 30.37 in 10.0 mi NNW 8.1 mph - N/A   Clear
3:15 AM 29.8 °F 24.9 °F 20.7 °F 69% 30.36 in 10.0 mi NNW 4.6 mph - N/A   Clear
3:35 AM 30.6 °F 25.8 °F 21.0 °F 68% 30.36 in 10.0 mi North 4.6 mph - N/A   Clear
3:55 AM 29.3 °F 24.3 °F 19.9 °F 68% 30.36 in 10.0 mi North 4.6 mph - N/A   Clear
4:15 AM 28.0 °F 20.8 °F 19.8 °F 71% 30.35 in 10.0 mi North 6.9 mph - N/A   Clear
4:35 AM 27.5 °F 20.2 °F 20.3 °F 74% 30.35 in 10.0 mi North 6.9 mph - N/A   Clear
4:55 AM 28.2 °F 20.2 °F 20.5 °F 73% 30.34 in 10.0 mi NNW 8.1 mph - N/A   Clear
5:15 AM 29.1 °F 22.1 °F 20.8 °F 71% 30.35 in 10.0 mi North 6.9 mph - N/A   Clear
5:35 AM 28.2 °F 22.0 °F 19.9 °F 71% 30.36 in 10.0 mi North 5.8 mph - N/A   Clear
5:55 AM 29.1 °F 24.1 °F 20.3 °F 70% 30.36 in 10.0 mi NNE 4.6 mph - N/A   Clear
6:15 AM 29.3 °F 24.3 °F 19.6 °F 67% 30.36 in 10.0 mi North 4.6 mph - N/A   Clear
6:35 AM 27.7 °F 21.3 °F 19.9 °F 73% 30.36 in 10.0 mi North 5.8 mph - N/A   Clear
6:55 AM 26.6 °F 18.2 °F 20.1 °F 77% 30.36 in 10.0 mi NW 8.1 mph - N/A   Clear
7:15 AM 26.2 °F 18.6 °F 20.1 °F 78% 30.36 in 10.0 mi NNW 6.9 mph - N/A   Clear
7:35 AM 27.1 °F 20.7 °F 20.1 °F 75% 30.36 in 10.0 mi North 5.8 mph - N/A   Clear
7:55 AM 25.5 °F 17.8 °F 19.2 °F 77% 30.36 in 10.0 mi North 6.9 mph - N/A   Clear
8:15 AM 26.1 °F 16.8 °F 19.8 °F 77% 30.36 in 10.0 mi North 9.2 mph - N/A   Clear
8:35 AM 27.9 °F 19.1 °F 21.0 °F 75% 30.36 in 10.0 mi North 9.2 mph - N/A   Clear
8:55 AM 30.9 °F 23.5 °F 21.9 °F 69% 30.38 in 10.0 mi North 8.1 mph - N/A   Clear
9:15 AM 33.1 °F 28.7 °F 22.1 °F 64% 30.38 in 10.0 mi NNW 4.6 mph - N/A   Clear
9:35 AM 34.9 °F 29.9 °F 22.5 °F 61% 30.39 in 10.0 mi NW 5.8 mph - N/A   Clear
9:55 AM 37.4 °F 32.8 °F 23.0 °F 56% 30.39 in 10.0 mi NNW 5.8 mph - N/A   Clear
10:15 AM 40.1 °F - 22.8 °F 50% 30.39 in 10.0 mi Calm Calm - N/A   Clear
10:40 AM 43.3 °F 39.9 °F 23.0 °F 45% 30.39 in 10.0 mi West 5.8 mph - N/A   Clear
10:55 AM 44.8 °F 41.0 °F 22.1 °F 41% 30.40 in 10.0 mi West 6.9 mph - N/A   Clear
11:15 AM 46.6 °F - 20.5 °F 36% 30.39 in 10.0 mi West 6.9 mph - N/A   Clear
11:40 AM 47.8 °F - 21.6 °F 35% 30.38 in 10.0 mi WSW 4.6 mph - N/A   Clear
11:55 AM 49.1 °F - 20.5 °F 32% 30.38 in 10.0 mi WSW 5.8 mph - N/A   Clear
12:15 PM 50.2 °F - 20.7 °F 31% 30.36 in 10.0 mi WSW 4.6 mph - N/A   Clear
12:35 PM 51.1 °F - 20.3 °F 30% 30.35 in 10.0 mi SSW 3.5 mph - N/A   Clear
12:55 PM 52.2 °F - 19.8 °F 28% 30.34 in 10.0 mi West 6.9 mph - N/A   Clear
1:15 PM 53.6 °F - 19.4 °F 26% 30.33 in 10.0 mi West 4.6 mph - N/A   Clear
1:35 PM 54.7 °F - 18.1 °F 24% 30.31 in 10.0 mi Calm Calm - N/A   Clear
1:55 PM 57.6 °F - 17.8 °F 21% 30.31 in 10.0 mi West 3.5 mph - N/A   Clear
2:15 PM 57.2 °F - 15.8 °F 20% 30.28 in 10.0 mi West 3.5 mph - N/A   Clear
2:40 PM 59.0 °F - 14.7 °F 18% 30.26 in 10.0 mi SE 4.6 mph - N/A   Clear
2:55 PM 60.1 °F - 15.1 °F 17% 30.26 in 10.0 mi Calm Calm - N/A   Clear
3:15 PM 61.2 °F - 13.6 °F 16% 30.24 in 10.0 mi Calm Calm - N/A   Clear
3:35 PM 61.0 °F - 13.8 °F 16% 30.23 in 10.0 mi Calm Calm - N/A   Clear
3:55 PM 61.9 °F - 14.5 °F 16% 30.22 in 10.0 mi WSW 5.8 mph - N/A   Clear
4:15 PM 62.2 °F - 14.2 °F 15% 30.21 in 10.0 mi SW 3.5 mph - N/A   Clear
4:35 PM 62.6 °F - 14.2 °F 15% 30.20 in 10.0 mi South 5.8 mph - N/A   Clear
4:55 PM 63.7 °F - 15.1 °F 15% 30.19 in 10.0 mi SW 3.5 mph - N/A   Clear
5:15 PM 63.3 °F - 14.5 °F 15% 30.19 in 10.0 mi Calm Calm - N/A   Clear
5:35 PM 63.3 °F - 14.2 °F 15% 30.18 in 10.0 mi SSW 5.8 mph - N/A   Clear
5:55 PM 64.0 °F - 14.5 °F 15% 30.17 in 10.0 mi South 3.5 mph - N/A   Clear
6:15 PM 64.0 °F - 14.5 °F 15% 30.17 in 10.0 mi SSW 5.8 mph - N/A   Clear
6:35 PM 63.5 °F - 14.2 °F 15% 30.16 in 10.0 mi SSW 3.5 mph - N/A   Clear
6:55 PM 63.5 °F - 15.1 °F 15% 30.16 in 10.0 mi SSW 6.9 mph - N/A   Clear
7:15 PM 62.6 °F - 15.1 °F 16% 30.16 in 10.0 mi South 6.9 mph - N/A   Clear
7:35 PM 60.1 °F - 15.4 °F 18% 30.16 in 10.0 mi South 6.9 mph - N/A   Clear
7:55 PM 54.3 °F - 17.6 °F 24% 30.16 in 10.0 mi SSE 8.1 mph - N/A   Clear
8:15 PM 50.7 °F - 18.9 °F 28% 30.16 in 10.0 mi SSE 8.1 mph - N/A   Clear
8:35 PM 50.2 °F - 18.7 °F 29% 30.16 in 10.0 mi SSE 8.1 mph - N/A   Clear
8:55 PM 48.6 °F - 19.4 °F 32% 30.16 in 10.0 mi SSE 9.2 mph - N/A   Clear
9:20 PM 51.8 °F - 19.0 °F 28% 30.16 in 10.0 mi SSE 10.4 mph - N/A   Clear
9:35 PM 50.4 °F - 20.1 °F 30% 30.16 in 10.0 mi SSE 8.1 mph - N/A   Clear
9:55 PM 46.9 °F - 20.7 °F 35% 30.16 in 10.0 mi SSE 11.5 mph - N/A   Clear
10:15 PM 48.6 °F - 20.3 °F 33% 30.16 in 10.0 mi SSE 10.4 mph - N/A   Clear
10:35 PM 49.1 °F - 20.7 °F 33% 30.16 in 10.0 mi South 10.4 mph - N/A   Clear
10:55 PM 51.6 °F - 22.1 °F 32% 30.16 in 10.0 mi South 12.7 mph - N/A   Clear
11:15 PM 49.8 °F - 22.1 °F 34% 30.16 in 10.0 mi SSE 9.2 mph - N/A   Clear
11:35 PM 46.4 °F 42.9 °F 23.5 °F 41% 30.15 in 10.0 mi SSE 6.9 mph - N/A   Clear
11:55 PM 45.1 °F 41.4 °F 23.0 °F 42% 30.15 in 10.0 mi SSE 6.9 mph - N/A   Clear
12:15 AM 44.2 °F 42.7 °F 23.0 °F 43% 30.15 in 10.0 mi SSE 3.5 mph - N/A   Clear
12:35 AM 44.8 °F 41.6 °F 23.0 °F 42% 30.14 in 10.0 mi SSE 5.8 mph - N/A   Clear
12:55 AM 42.4 °F 38.8 °F 23.2 °F 47% 30.14 in 10.0 mi SSE 5.8 mph - N/A   Clear